Weather History for Longville, MN

Change the Weather History Date:

Saturday, December 1, 2012

  Actual Average (KPWC) Record (KPWC)
Temperature  
Mean Temperature 34 °F -  
Max Temperature 37 °F 29 °F 50 °F (1998)
Min Temperature 30 °F 16 °F -5 °F (2006)
Degree Days  
Heating Degree Days 32    
Moisture  
Dew Point 32 °F    
Average Humidity 94    
Maximum Humidity 100    
Minimum Humidity 87    
Precipitation  
Precipitation 0.00 in - - ()
Sea Level Pressure  
Sea Level Pressure 29.78 in    
Wind  
Wind Speed 8 mph (SSE)    
Max Wind Speed 16 mph    
Max Gust Speed 21 mph    
Visibility 2 miles    
Events      
Averages and records for this station are not official NWS values.
T = Trace of Precipitation, MM = Missing Value Source: NWS Daily Summary

Daily Weather History Graph

Daily Weather History Graph

Search for Another Location

Airport:

Trip Planner

Search our weather history database for the weather conditions in past years. The results will help you decide how hot, cold, wet, or windy it might be!

Date:

Astronomy

Dec. 01, 2012 Rise Set
Actual Time 7:42 AM CST 4:29 PM CST
Civil Twilight 7:07 AM CST 5:04 PM CST
Nautical Twilight 6:29 AM CST 5:42 PM CST
Astronomical Twilight 5:52 AM CST 6:19 PM CST
Moon 7:23 PM CST (12/1) 9:53 AM CST (12/1)
Length of Visible Light 9h 56m
Length of Day
8h 47m
Waning Gibbous, 91% of the Moon is Illuminated
Dec 1
Waning Gibbous
Dec 6
Last Quarter
Dec 13
New
Dec 19
First Quarter
Dec 28
Full

Hourly Weather History & Observations

Time (CST) Temp. Windchill Dew Point Humidity Pressure Visibility Wind Dir Wind Speed Gust Speed Precip Events Conditions
12:16 AM 30.2 °F 21.3 °F 28.4 °F 93% 29.95 in 3.0 mi SSE 10.4 mph - N/A   Overcast
12:36 AM 30.2 °F 21.9 °F 28.4 °F 93% 29.94 in 3.0 mi SSE 9.2 mph - N/A   Overcast
12:56 AM 30.2 °F 21.3 °F 28.4 °F 93% 29.94 in 3.0 mi SE 10.4 mph - N/A   Overcast
1:16 AM 30.2 °F 22.6 °F 28.4 °F 93% 29.94 in 3.0 mi SSE 8.1 mph - N/A   Overcast
1:36 AM 30.2 °F 20.2 °F 28.4 °F 93% 29.91 in 3.0 mi SE 12.7 mph - N/A   Overcast
1:56 AM 30.2 °F 19.8 °F 28.4 °F 93% 29.90 in 3.0 mi SSE 13.8 mph - N/A   Overcast
2:16 AM 30.2 °F 21.3 °F 28.4 °F 93% 29.90 in 2.5 mi SSE 10.4 mph - N/A   Overcast
2:36 AM 30.2 °F 18.9 °F 30.2 °F 100% 29.89 in 2.5 mi SSE 16.1 mph 19.6 mph N/A   Overcast
2:56 AM 30.2 °F 19.3 °F 30.2 °F 100% 29.87 in 2.5 mi SSE 15.0 mph 20.7 mph N/A   Overcast
3:16 AM 30.2 °F 20.8 °F 30.2 °F 100% 29.86 in 2.5 mi SSE 11.5 mph 20.7 mph N/A   Overcast
3:36 AM 30.2 °F 20.2 °F 30.2 °F 100% 29.83 in 2.5 mi SE 12.7 mph - N/A   Overcast
3:56 AM 30.2 °F 21.3 °F 30.2 °F 100% 29.82 in 2.5 mi SSE 10.4 mph 19.6 mph N/A   Overcast
4:16 AM 32.0 °F 23.6 °F 30.2 °F 93% 29.82 in 2.5 mi SSE 10.4 mph 18.4 mph N/A   Overcast
4:36 AM 32.0 °F 23.6 °F 30.2 °F 93% 29.81 in 2.0 mi SSE 10.4 mph 16.1 mph N/A   Overcast
4:56 AM 32.0 °F 23.6 °F 30.2 °F 93% 29.80 in 2.0 mi SE 10.4 mph - N/A   Overcast
5:16 AM 32.0 °F 24.2 °F 30.2 °F 93% 29.80 in 2.0 mi SSE 9.2 mph - N/A   Overcast
5:36 AM 32.0 °F 23.6 °F 32.0 °F 100% 29.79 in 2.0 mi SSE 10.4 mph - N/A   Overcast
5:56 AM 32.0 °F 23.6 °F 32.0 °F 100% 29.78 in 2.0 mi SE 10.4 mph 16.1 mph N/A   Overcast
6:16 AM 33.8 °F 24.8 °F 32.0 °F 93% 29.77 in 1.8 mi SSE 12.7 mph 17.3 mph N/A   Overcast
6:36 AM 33.8 °F 24.3 °F 32.0 °F 93% 29.75 in 1.5 mi SSE 13.8 mph 18.4 mph N/A   Overcast
6:56 AM 33.8 °F 24.8 °F 32.0 °F 93% 29.73 in 1.5 mi SSE 12.7 mph - N/A   Overcast
7:16 AM 33.8 °F 26.4 °F 33.8 °F 100% 29.73 in 1.2 mi SSE 9.2 mph 18.4 mph N/A   Overcast
7:36 AM 33.8 °F 25.3 °F 33.8 °F 100% 29.73 in 1.2 mi SSE 11.5 mph - N/A   Overcast
7:56 AM 33.8 °F 25.3 °F 33.8 °F 100% 29.73 in 1.2 mi SSE 11.5 mph 18.4 mph N/A   Overcast
8:16 AM 33.8 °F 26.4 °F 33.8 °F 100% 29.74 in 1.2 mi SSE 9.2 mph - N/A   Overcast
8:36 AM 33.8 °F 29.6 °F 33.8 °F 100% 29.75 in 1.2 mi SSE 4.6 mph - N/A   Overcast
8:56 AM 33.8 °F 27.7 °F 33.8 °F 100% 29.74 in 0.8 mi SSE 6.9 mph - N/A   Overcast
9:16 AM 35.6 °F 31.7 °F 33.8 °F 93% 29.74 in 1.0 mi SSE 4.6 mph - N/A   Overcast
9:36 AM 35.6 °F 31.7 °F 33.8 °F 93% 29.75 in 1.0 mi SSE 4.6 mph - N/A   Overcast
9:56 AM 35.6 °F 29.9 °F 33.8 °F 93% 29.73 in 1.0 mi SSE 6.9 mph - N/A   Overcast
10:16 AM 35.6 °F 31.7 °F 33.8 °F 93% 29.74 in 1.2 mi SSE 4.6 mph - N/A   Overcast
10:36 AM 35.6 °F 29.2 °F 35.6 °F 100% 29.74 in 1.2 mi SSE 8.1 mph - N/A   Overcast
10:56 AM 35.6 °F 28.6 °F 35.6 °F 100% 29.73 in 1.5 mi SSE 9.2 mph - N/A   Overcast
11:16 AM 35.6 °F 28.0 °F 35.6 °F 100% 29.71 in 1.5 mi SSE 10.4 mph - N/A   Overcast
11:36 AM 35.6 °F 29.2 °F 33.8 °F 93% 29.72 in 1.5 mi South 8.1 mph - N/A   Overcast
11:56 AM 37.4 °F 32.1 °F 35.6 °F 93% 29.71 in 1.8 mi South 6.9 mph - N/A   Overcast
12:16 PM 37.4 °F 32.8 °F 35.6 °F 93% 29.70 in 1.8 mi South 5.8 mph - N/A   Overcast
12:36 PM 37.4 °F 33.8 °F 35.6 °F 93% 29.69 in 1.8 mi South 4.6 mph - N/A   Overcast
1:16 PM 37.4 °F 34.9 °F 35.6 °F 93% 29.68 in 2.0 mi South 3.5 mph - N/A   Overcast
1:36 PM 37.4 °F - 35.6 °F 93% 29.68 in 2.0 mi Calm Calm - N/A   Overcast
2:16 PM 37.4 °F - 35.6 °F 93% 29.69 in 2.0 mi Calm Calm - N/A   Overcast
2:36 PM 37.4 °F - 33.8 °F 87% 29.69 in 2.0 mi Calm Calm - N/A   Overcast
2:56 PM 37.4 °F - 33.8 °F 87% 29.70 in 2.0 mi Calm Calm - N/A   Mostly Cloudy
3:16 PM 37.4 °F - 33.8 °F 87% 29.70 in 2.5 mi Calm Calm - N/A   Scattered Clouds
3:36 PM 37.4 °F - 33.8 °F 87% 29.72 in 2.5 mi Calm Calm - N/A   Mostly Cloudy
3:56 PM 37.4 °F 34.9 °F 33.8 °F 87% 29.72 in 2.5 mi West 3.5 mph - N/A   Scattered Clouds
4:16 PM 35.6 °F - 33.8 °F 93% 29.73 in 3.0 mi Calm Calm - N/A   Scattered Clouds
4:36 PM 35.6 °F - 33.8 °F 93% 29.74 in 4.0 mi Calm Calm - N/A   Clear
5:16 PM 35.6 °F - 33.8 °F 93% 29.74 in 3.0 mi Calm Calm - N/A   Mist
5:36 PM 35.6 °F - 33.8 °F 93% 29.75 in 3.0 mi Calm Calm - N/A   Mist
5:56 PM 35.6 °F - 33.8 °F 93% 29.75 in 3.0 mi Calm Calm - N/A   Mist
6:16 PM 33.8 °F - 32.0 °F 93% 29.74 in 2.5 mi Calm Calm - N/A   Mist
6:36 PM 33.8 °F - 32.0 °F 93% 29.75 in 2.5 mi Calm Calm - N/A   Mist
6:56 PM 33.8 °F - 32.0 °F 93% 29.75 in 2.5 mi Calm Calm - N/A   Mist
7:16 PM 33.8 °F - 32.0 °F 93% 29.75 in 2.5 mi Calm Calm - N/A   Mist
7:36 PM 35.6 °F - 33.8 °F 93% 29.77 in 4.0 mi Calm Calm - N/A   Clear
7:56 PM 33.8 °F - 32.0 °F 93% 29.76 in 3.0 mi Calm Calm - N/A   Mist
8:16 PM 33.8 °F - 32.0 °F 93% 29.77 in 3.0 mi Calm Calm - N/A   Mist
8:36 PM 33.8 °F - 32.0 °F 93% 29.77 in 3.0 mi Calm Calm - N/A   Mist
8:56 PM 35.6 °F - 33.8 °F 93% 29.80 in 3.0 mi Calm Calm - N/A   Clear
9:36 PM 35.6 °F 32.8 °F 32.0 °F 87% 29.80 in 4.0 mi West 3.5 mph - N/A   Clear
9:56 PM 35.6 °F 32.8 °F 32.0 °F 87% 29.81 in 4.0 mi WNW 3.5 mph - N/A   Clear
10:16 PM 35.6 °F 32.8 °F 32.0 °F 87% 29.81 in 4.0 mi NW 3.5 mph - N/A   Clear
10:36 PM 35.6 °F - 32.0 °F 87% 29.81 in 4.0 mi Calm Calm - N/A   Scattered Clouds
10:56 PM 35.6 °F 31.7 °F 32.0 °F 87% 29.82 in 4.0 mi WNW 4.6 mph - N/A   Mostly Cloudy
11:16 PM 33.8 °F 29.6 °F 32.0 °F 93% 29.83 in 4.0 mi WNW 4.6 mph - N/A   Overcast
11:36 PM 33.8 °F - 32.0 °F 93% 29.83 in 3.0 mi Calm Calm - N/A   Overcast
11:56 PM 33.8 °F 30.8 °F 32.0 °F 93% 29.83 in 3.0 mi NW 3.5 mph - N/A   Overcast